Location: Burzi?i
(45.0869°N, 16.0577°E)
Time: 10:58:36
(UTC+00:00)

ATLAS 5 CENTAUR R/B - Pass Details

Date: 29 October 2020
Orbit: 531 x 1127 km, 63.4° (Epoch: 22 November)

Event Time Altitude Azimuth Distance (km) Brightness Sun altitude
Rises 18:11:54 0° 319° (NW) 3,021 5.8 -26.0°
Reaches altitude 10° 18:16:26 10° 359° (N) 2,272 4.5 -26.8°
Enters shadow 18:17:30 11° 11° (N) 2,271 4.4 -26.9°
